Regional Weather Roundup
Issued by NWS

Home | Current Version | Previous Version | Text Only | Print | Product List | Glossary Off
Versions: 1 2 3 4 5 6 7 8 9 10 11 12 13 14 15 16 17 18 19 20 21 22 23 24 25 26 27 28 29 30 31 32 33 34 35 36 37 38 39 40 41 42 43 44 45 46 47 48 49 50

000
ASUS45 KABQ 300810
RWRNM
NEW MEXICO REGIONAL WEATHER ROUNDUP
NATIONAL WEATHER SERVICE ALBUQUERQUE NM
200 AM MDT SAT MAY 30 2015

NOTE: "FAIR" MEANS FEW OR NO CLOUDS BELOW 12,000 FEET AGL WITH NO
       SIGNIFICANT WEATHER OR OBSTRUCTIONS TO VISION.

      THIS PRODUCT IS RELEASED AS TWO VERSIONS.  ONE VERSION NEAR
      THE TOP OF THE HOUR CONTAINING PRELIMINARY DATA FROM ALBUQUERQUE
      AND OTHER STATIONS.  A FINAL VERSION WITH ADDITIONAL DATA IS
      ISSUED ABOUT 10 MINUTES AFTER THE HOUR.

NMZ501-503-504-510>518-300900-
NORTHWEST PLATEAU/NORTHCENTRAL MOUNTAINS

CITY           SKY/WX    TMP DP  RH WIND       PRES   REMARKS
FARMINGTON     CLEAR     51  23  33 N7        30.19S
LOS ALAMOS     CLEAR     54  40  58 SW13G20   30.32S
SANTA FE       PTCLDY    57  41  55 S10       30.27R
TAOS           CLEAR     52  34  50 E18G24    30.32S
ANGEL FIRE     CLOUDY    46  37  71 E5        30.42F

$$
NMZ402-403-502-505>509-300900-
WESTCENTRAL MOUNTAINS/SOUTHWEST MOUNTAINS

CITY           SKY/WX    TMP DP  RH WIND       PRES   REMARKS
GALLUP         CLEAR     41  28  60 E6        30.27R
GRANTS         CLEAR     41  29  61 NW9       30.29S
SILVER CITY      N/A     55  21  26 N13       30.15S

$$
NMZ407-409-411-412-300900-
SOUTHERN DESERTS

CITY           SKY/WX    TMP DP  RH WIND       PRES   REMARKS
LORDSBURG      FAIR      66  21  18 W10       30.05S
DEMING         CLEAR     75  29  18 NE15      30.05S
LAS CRUCES     CLEAR     69  24  18 NW7       30.05S
HOLLOMAN AFB   PTCLDY    67  32  27 CALM      30.03R
ALAMOGORDO     CLEAR     72  32  23 N6        30.05S
T OR C         PTCLDY    68  31  25 N6        30.11S

$$
NMZ519>523-300900-
CENTRAL VALLEYS/CENTRAL HIGHLANDS

CITY           SKY/WX    TMP DP  RH WIND       PRES   REMARKS
ALBUQUERQUE    PTCLDY    62  46  55 E30G38    30.20S
DOUBLE EAGLE   PTCLDY    56  44  65 SE8       30.24S
MORIARTY ARPT  FAIR      53  43  68 S3        30.32R
CLINES CORNERS PTCLDY    50  44  80 E16       30.32R
BELEN          FAIR      56  43  62 W5        30.20R
SOCORRO        FAIR      63  44  50 NW14G20   30.18R

$$
NMZ524>526-539-540-300900-
SOUTHCENTRAL MOUNTAINS

CITY           SKY/WX    TMP DP  RH WIND       PRES   REMARKS
RUIDOSO        CLOUDY    55  46  71 CALM      30.32R

$$
NMZ527>531-300900-
NORTHEAST HIGHLANDS/NORTHEAST PLAINS

CITY           SKY/WX    TMP DP  RH WIND       PRES   REMARKS
LAS VEGAS      MOCLDY    48  45  89 N9        30.36S
RATON          CLOUDY    50  44  80 NE5       30.35F
CLAYTON        CLOUDY    53  50  89 N14       30.27F

$$
NMZ532>537-300900-
EASTCENTRAL PLAINS

CITY           SKY/WX    TMP DP  RH WIND       PRES   REMARKS
TUCUMCARI      MOCLDY    57  51  80 NE9       30.21R
CANNON AFB     CLOUDY    57  54  88 N12       30.19R
CLOVIS AIRPORT CLOUDY    55  54  94 N9        30.20R

$$
NMZ028-029-538-300900-
SOUTHEAST PLAINS

CITY           SKY/WX    TMP DP  RH WIND       PRES   REMARKS
ROSWELL        LGT RAIN  60  56  86 N13       30.16R
ARTESIA        CLOUDY    70  46  43 NE15G26   30.12S
CARLSBAD       CLOUDY    70  58  65 N18       30.09R
HOBBS          PTCLDY    57  57 100 NE8       30.14R


$$



USA.gov is the U.S. government's official web portal to all federal, state and local government web resources and services.